{"data":{"norad_id":65893,"epoch":"2026-05-25T01:21:38.809152Z","epoch_age_seconds":63916,"freshness":"FRESH","line1":"1 65893U 25224M   26145.05669918  .00010010  00000+0  34959-3 0  9992","line2":"2 65893  53.1596  16.8239 0001229  88.8548 271.2594 15.30204917 36568","mean_motion":15.30204917,"eccentricity":0.0001229,"inclination_deg":53.1596,"raan_deg":16.8239,"arg_perigee_deg":88.8548,"mean_anomaly_deg":271.2594,"bstar":0.00034959,"rev_number":3656,"period_min":94.105043318195,"perigee_km":474.35811301792,"apogee_km":476.04266334794,"semimajor_km":6853.3373881829,"source":"CELESTRAK","updated_at":"2026-05-25T13:38:20.981169Z"}}